STARLINK-5596 (55476 NORAD) Tracking and Keplerian Element Data

This shows tracking and keplerian element data for the satellite.

Feedback or suggestion? Click here.




ElementValue
Catalog55476
NameSTARLINK-5596
Epoch Orbit834
Epoch Day85.24356501
Epoch Year2023
RAAN74.1264
Inclination43.0013
Eccentricity8.16E-05
Argument of Perigee234.5763
Mean Anonmoly125.5029
Mean Motion15.73129554
Decay Rate0.00098311
L11 55476U 23015AD 23085.24356501 .00098311 00000+0 69033-3 0 9997
L22 55476 43.0013 74.1264 0000816 234.5763 125.5029 15.73129554 8340



Live tracking and technical data element details for STARLINK-5596 (NORAD 55476). STARLINK-5596 can be tracked NOW for your location showing map with azimuth and elevation plus other details from your city location.







IsCatalogInMostPopularTable: catalog: 55476, numindb: -1

Insert: records affected: 1


GetName: 55476 STARLINK-5596

Hit Count: inserted at: Tue, 28 Mar 2023 02:15:18 GMT